Tracking 21992 objects as of 28-Nov-2020
HD Live streaming from Space Station
objects crossing your sky now

OPS 5268 (DMSP 5A F3)

Track OPS 5268 (DMSP 5A F3) now!
10-day predictions
OPS 5268 (DMSP 5A F3) is classified as:


NORAD ID: 4953
Int'l Code: 1971-012A
Perigee: 736.8 km
Apogee: 791.7 km
Inclination: 98.7 °
Period: 100.0 minutes
Semi major axis: 7135 km
RCS: 0.9997 m2 (medium)
Launch date: February 17, 1971
Source: United States (US)
Launch site: AIR FORCE WESTERN TEST RANGE (AFWTR)
aabbcc
Your satellite tracking list
Your tracking list is empty




NASA's NSSDC Master Catalog

Two Line Element Set (TLE):
1  4953U 71012A   20333.49618850  .00000070  00000-0  36131-4 0  9999
2  4953  98.6812 157.5818 0038476  10.3768 349.8206 14.40417804607317
Source of the keplerian elements: AFSPC